Regional Weather Roundup
Issued by NWS Cleveland, OH

Home | Current Version | Previous Version | Graphics & Text | Print | Product List | Glossary On
Versions: 1 2 3 4 5 6 7 8 9 10 11 12 13 14 15 16 17 18 19 20 21 22 23 24 25 26 27 28 29 30 31 32 33 34 35 36 37 38 39 40 41 42 43 44 45 46 47 48 49 50
000
ASUS41 KCLE 210810
RWRCLE
OHIO REGIONAL WEATHER ROUNDUP
NATIONAL WEATHER SERVICE WILMINGTON, OH
300 AM EST SAT JAN 21 2017

NOTE: "FAIR" INDICATES FEW OR NO CLOUDS BELOW 12,000 FEET WITH NO
SIGNIFICANT WEATHER AND/OR OBSTRUCTIONS TO VISIBILITY.

OHZ001>008-015>018-024>027-034-035-043-044-210900-
   NORTHWEST OHIO

CITY           SKY/WX    TMP DP  RH WIND       PRES   REMARKS
DEFIANCE       CLOUDY    49  45  86 S6        29.71S
FINDLAY        CLOUDY    51  45  79 SE10      29.72S
TOLEDO EXPRESS CLOUDY    45  45 100 SE3       29.72S FOG
TOLEDO EXEC    CLOUDY    47  47 100 SE6       29.74S
LIMA           CLOUDY    50  48  93 SE9       29.73R
$$

OHZ009>014-019>023-028>033-038-089-210900-
   NORTHEAST OHIO

CITY           SKY/WX    TMP DP  RH WIND       PRES   REMARKS
CLE-HOPKINS    MOCLDY    48  43  82 SE7       29.79F
CLE-LAKEFRONT  CLOUDY    49  46  90 CALM      29.77S
CUY CO. ARPT   NOT AVBL
LORAIN-ELYRIA  FAIR      44  42  93 S6        29.77F
ASHTABULA      FOG       47  47 100 S3        29.82R VSB 1/4
AKRON-CANTON   FOG       46  43  89 SE5       29.80S VSB 1/2
WOOSTER        FOG       37  36  96 SE3       29.80S VSB 1/4
MANSFIELD      MOCLDY    48  46  93 S7        29.77F
YOUNGSTOWN     FAIR      42  41  96 S5        29.82R FOG
$$

OHZ042-051>053-060>062-070>072-077>081-210900-
  SOUTHWEST OHIO

CITY           SKY/WX    TMP DP  RH WIND       PRES   REMARKS
CINC-COVINGTON FAIR      49  46  90 S8        29.74S
CINC-LUNKEN    FAIR      44  44 100 CALM      29.77S FOG
HAMILTON       FAIR      46  46 100 E3        29.76R
DAYTON         MOCLDY    50  47  89 S8        29.75R
WRIGHT-PAT AFB FAIR      49  49  99 SE5       29.75R
DAYTON GENERAL NOT AVBL
WILMINGTON     MOCLDY    49  46  90 S7        29.76R
$$

OHZ036-037-039>041-045>050-054>059-063>069-073>076-082>088-210900-
  CENTRAL AND SOUTHEAST OHIO

CITY           SKY/WX    TMP DP  RH WIND       PRES   REMARKS
COLUMBUS       FAIR      50  46  86 SE7       29.77S
OSU AIRPORT    FAIR      49  47  93 SE7       29.76F
BOLTON FIELD   FAIR      47  46  96 SE3       29.78S
RICKENBACK AFB   N/A     42  42 100 SE5       29.77S
NEWARK         FOG       39  38  96 CALM      29.78F VSB 1/2
MARION         CLOUDY    48  46  93 SE8       29.76S
LANCASTER      FOG       39  37  92 S5        29.79S VSB 1/2
ZANESVILLE     FAIR      41  40  96 CALM      29.80F
NEW PHILLY     FOG       38  38 100 SE5       29.82S VSB 1/4
$$




USA.gov is the U.S. government's official web portal to all federal, state and local government web resources and services.